{"data":{"norad_id":67239,"intl_designator":"2025-311D","name":"HULIANWANG DIGUI-131","alt_names":[],"object_type":"PAYLOAD","status":"ACTIVE","operator":null,"country":"PRC","launch_date":"2025-12-25","launch_site_code":"WSC","launch_vehicle":null,"mission":null,"orbit_class":"UNKNOWN","rcs_meters":null,"size_class":null,"mass_kg":null,"dimensions":null,"purposes":[],"wikipedia_slug":null,"has_3d_model":false,"image_url":null,"decayed_at":null,"tle_current":{"epoch":"2026-05-25T04:09:50.145984Z","epoch_age_seconds":63130,"freshness":"FRESH","line1":"1 67239U 25311D   26145.17349706 -.00000096  00000+0  60821-4 0  9990","line2":"2 67239  50.0035 198.6154 0001041 248.4398 111.6364 13.29322394 20271","mean_motion":13.29322394,"eccentricity":0.0001041,"inclination_deg":50.0035,"raan_deg":198.6154,"arg_perigee_deg":248.4398,"mean_anomaly_deg":111.6364,"bstar":6.0821e-5,"rev_number":2027,"period_min":108.32586635865,"perigee_km":1148.5365764859,"apogee_km":1150.1037930718,"semimajor_km":7527.4571847789,"source":"CELESTRAK","updated_at":"2026-05-25T13:38:06.822046Z"}}}